Change the Weather History Date:

Thursday, June 27, 2013

  Actual Average Record
Temperature  
Mean Temperature 86 °F -  
Max Temperature 95 °F 89 °F 98 °F (1967)
Min Temperature 77 °F 72 °F 62 °F (1974)
Cooling Degree Days 21    
Growing Degree Days 36 (Base 50)    
Moisture  
Dew Point 75 °F    
Average Humidity 70    
Maximum Humidity 87    
Minimum Humidity 51    
Precipitation  
Precipitation 0.00 in - - ()
Sea Level Pressure  
Sea Level Pressure 29.99 in    
Wind  
Wind Speed 6 mph (West)    
Max Wind Speed 9 mph    
Max Gust Speed -    
Visibility 10 miles    
Events      
Averages and records for this station are not official NWS values.
T = Trace of Precipitation, MM = Missing Value Source: NWS Daily Summary

Daily Weather History Graph

Daily Weather History Graph

Search for Another Location

Airport or City:

Trip Planner

Search our weather history database for the weather conditions in past years. The results will help you decide how hot, cold, wet, or windy it might be!

Date:

Astronomy

Jun. 27, 2013 Rise Set
Actual Time 6:02 AM CDT 8:06 PM CDT
Civil Twilight 5:34 AM CDT 8:33 PM CDT
Nautical Twilight 5:01 AM CDT 9:06 PM CDT
Astronomical Twilight 4:25 AM CDT 9:42 PM CDT
Moon 11:28 PM CDT (6/27) 10:41 AM CDT (6/27)
Length of Visible Light 14h 58m
Length of Day
14h 03m
Waning Gibbous, 76% of the Moon is Illuminated
Jun 27
Waning Gibbous
Jun 29
Last Quarter
Jul 8
New
Jul 15
First Quarter
Jul 22
Full

Hourly Weather History & Observations

Time (CDT) Temp. Heat Index Dew Point Humidity Pressure Visibility Wind Dir Wind Speed Gust Speed Precip Events Conditions
12:53 AM 81.0 °F 86.7 °F 75.0 °F 82% 30.03 in 10.0 mi SSW 5.8 mph - N/A   Scattered Clouds
1:53 AM 81.0 °F 86.7 °F 75.0 °F 82% 30.01 in 10.0 mi SSW 6.9 mph - N/A   Scattered Clouds
2:53 AM 80.1 °F 85.1 °F 75.0 °F 85% 30.01 in 9.0 mi SW 5.8 mph - N/A   Partly Cloudy
3:53 AM 80.1 °F 84.5 °F 73.9 °F 81% 30.01 in 10.0 mi SW 6.9 mph - N/A   Partly Cloudy
4:53 AM 79.0 °F - 73.9 °F 84% 30.02 in 10.0 mi SW 4.6 mph - N/A   Partly Cloudy
5:53 AM 78.1 °F - 73.9 °F 87% 30.03 in 10.0 mi West 3.5 mph - N/A   Scattered Clouds
6:53 AM 80.1 °F 85.1 °F 75.0 °F 85% 30.02 in 10.0 mi WSW 3.5 mph - N/A   Scattered Clouds
7:53 AM 84.0 °F 92.6 °F 75.9 °F 76% 30.03 in 10.0 mi WNW 4.6 mph - N/A   Scattered Clouds
8:53 AM 86.0 °F 95.1 °F 75.0 °F 70% 30.04 in 10.0 mi WNW 6.9 mph - N/A   Mostly Cloudy
9:53 AM 88.0 °F 98.5 °F 75.9 °F 67% 30.03 in 10.0 mi WNW 9.2 mph - N/A   Mostly Cloudy
10:53 AM 90.0 °F 101.3 °F 75.9 °F 63% 30.03 in 10.0 mi NNW 6.9 mph - N/A   Mostly Cloudy
11:53 AM 89.1 °F 100.2 °F 75.9 °F 65% 30.02 in 10.0 mi WNW 4.6 mph - N/A   Mostly Cloudy
12:53 PM 91.0 °F 102.9 °F 75.9 °F 61% 30.01 in 10.0 mi North 4.6 mph - N/A   Mostly Cloudy
1:53 PM 91.0 °F 101.6 °F 75.0 °F 59% 30.00 in 10.0 mi Variable 3.5 mph - N/A   Mostly Cloudy
2:53 PM 93.0 °F 103.2 °F 73.9 °F 54% 29.98 in 10.0 mi North 4.6 mph - N/A   Mostly Cloudy
3:53 PM 93.9 °F 104.0 °F 73.9 °F 52% 29.96 in 10.0 mi North 6.9 mph - N/A   Mostly Cloudy
4:53 PM 93.9 °F 103.4 °F 73.0 °F 51% 29.95 in 10.0 mi West 4.6 mph - N/A   Mostly Cloudy
5:53 PM 93.0 °F 101.9 °F 73.0 °F 52% 29.94 in 10.0 mi WNW 3.5 mph - N/A   Mostly Cloudy
6:53 PM 90.0 °F 100.2 °F 75.0 °F 61% 29.94 in 10.0 mi SSE 9.2 mph - N/A   Mostly Cloudy
7:53 PM 88.0 °F 98.5 °F 75.9 °F 67% 29.93 in 10.0 mi SSE 5.8 mph - N/A   Scattered Clouds
8:53 PM 86.0 °F 96.9 °F 77.0 °F 74% 29.94 in 10.0 mi South 4.6 mph - N/A   Mostly Cloudy
9:53 PM 84.9 °F 95.3 °F 77.0 °F 77% 29.96 in 10.0 mi SW 8.1 mph - N/A   Scattered Clouds
10:53 PM 84.0 °F 93.7 °F 77.0 °F 79% 29.96 in 10.0 mi WSW 8.1 mph - N/A   Scattered Clouds
11:53 PM 82.9 °F 91.8 °F 77.0 °F 82% 29.96 in 10.0 mi West 5.8 mph - N/A   Scattered Clouds